This is the latest recevied weather packets stored in our database for station/object KQ4EHY-1. If no packets are shown the sender has not sent any weather packets the latest 10 day(s).
| Time | Temp. | Humidity | Pressure | Rain* | Wind** | Luminosity | Snow |
|---|---|---|---|---|---|---|---|
| 1778144289 | 17.22° C | 99% | 1006.4 hPa | 13.72 mm | 0 m/s | - | - |
| 1778144229 | 17.22° C | 99% | 1006.4 hPa | 13.72 mm | 0 m/s | - | - |
| 1778144169 | 17.22° C | 99% | 1006.4 hPa | 13.72 mm | 0 m/s | - | - |
| 1778144109 | 17.22° C | 99% | 1006.2 hPa | 19.81 mm | 0 m/s | - | - |
| 1778144049 | 17.22° C | 99% | 1006.2 hPa | 19.81 mm | 0 m/s | - | - |
| 1778143989 | 17.22° C | 99% | 1006.2 hPa | 19.81 mm | 0 m/s | - | - |
| 1778143929 | 17.22° C | 99% | 1006.2 hPa | 19.81 mm | 0 m/s | - | - |
| 1778143869 | 17.22° C | 99% | 1006.2 hPa | 19.81 mm | 0 m/s | - | - |
| 1778143809 | 17.22° C | 99% | 1005.8 hPa | 16.76 mm | 0 m/s | - | - |
| 1778143749 | 17.22° C | 99% | 1005.8 hPa | 16.76 mm | 0 m/s | - | - |
| 1778143689 | 17.22° C | 99% | 1005.8 hPa | 16.76 mm | 0 m/s | - | - |
| 1778143629 | 17.22° C | 99% | 1005.8 hPa | 16.76 mm | 0 m/s | - | - |
| 1778143569 | 17.22° C | 99% | 1005.8 hPa | 16.76 mm | 0 m/s | - | - |
| 1778143509 | 17.22° C | 99% | 1005.8 hPa | 16.76 mm | 0 m/s | - | - |
| 1778143449 | 17.22° C | 99% | 1006.2 hPa | 11.94 mm | 0 m/s | - | - |
| 1778143389 | 17.22° C | 99% | 1006.2 hPa | 11.94 mm | 0 m/s | - | - |
| 1778143329 | 17.22° C | 99% | 1006.2 hPa | 11.94 mm | 0 m/s | - | - |
| 1778143269 | 17.22° C | 99% | 1006.2 hPa | 11.94 mm | 0 m/s | - | - |
| 1778143209 | 17.22° C | 99% | 1006 hPa | 1.02 mm | 0 m/s | - | - |
| 1778143149 | 17.22° C | 99% | 1006 hPa | 1.02 mm | 0 m/s | - | - |
| 1778143089 | 17.22° C | 99% | 1006 hPa | 1.02 mm | 0 m/s | - | - |
| 1778143029 | 17.22° C | 99% | 1006 hPa | 1.02 mm | 0 m/s | - | - |
| 1778142969 | 17.22° C | 99% | 1006 hPa | 1.02 mm | 0 m/s | - | - |
| 1778142909 | 17.22° C | 98% | 1006.3 hPa | 2.79 mm | 0 m/s | - | - |
| 1778142849 | 17.22° C | 98% | 1006.3 hPa | 2.79 mm | 0 m/s | - | - |
* Rain latest hour (hover to see other rain measurements)
** Current wind speed in m/s (hover to see current wind gust speed)